TimeCDT,TemperatureF,Dew PointF,Humidity,Sea Level PressureIn,VisibilityMPH,Wind Direction,Wind SpeedMPH,Gust SpeedMPH,PrecipitationIn,Events,Conditions,WindDirDegrees,DateUTC
12:53 AM,23.0,19.0,85,29.96,10.0,West,11.5,-,N/A,,Overcast,260,2013-03-12 05:53:00
1:53 AM,23.0,19.0,85,29.95,10.0,West,11.5,-,N/A,,Overcast,280,2013-03-12 06:53:00
2:53 AM,25.0,21.9,88,29.95,5.0,WNW,12.7,-,0.00,Snow,Light Snow,300,2013-03-12 07:53:00
3:53 AM,24.1,21.0,88,29.95,8.0,WNW,15.0,21.9,0.00,,Overcast,300,2013-03-12 08:53:00
4:18 AM,24.8,21.2,86,29.87,4.0,WNW,16.1,-,0.00,Snow,Light Snow,300,2013-03-12 09:18:00
4:37 AM,24.8,23.0,93,29.88,4.0,WNW,15.0,23.0,0.00,Snow,Light Snow,300,2013-03-12 09:37:00
4:53 AM,25.0,23.0,92,29.96,5.0,WNW,16.1,-,0.00,Snow,Light Snow,300,2013-03-12 09:53:00
5:53 AM,25.0,23.0,92,29.98,4.0,NW,17.3,25.3,0.00,Snow,Light Snow,310,2013-03-12 10:53:00
6:07 AM,24.8,23.0,93,29.90,2.5,NW,19.6,26.5,0.00,Snow,Light Snow,310,2013-03-12 11:07:00
6:21 AM,24.8,23.0,93,29.91,3.0,NW,20.7,-,0.00,Snow,Light Snow,320,2013-03-12 11:21:00
6:53 AM,25.0,23.0,92,30.01,2.0,NW,18.4,25.3,0.00,Snow,Light Snow,310,2013-03-12 11:53:00
7:22 AM,24.8,21.2,86,29.93,1.5,NW,24.2,31.1,0.00,Snow,Light Snow,320,2013-03-12 12:22:00
7:46 AM,21.2,19.4,93,29.95,3.0,North,18.4,-,0.00,Snow,Light Snow,350,2013-03-12 12:46:00
7:50 AM,21.2,19.4,93,29.95,2.5,NNW,16.1,-,0.00,Snow,Light Snow,340,2013-03-12 12:50:00
7:53 AM,21.9,19.9,92,30.04,2.0,NNW,17.3,-,0.00,Snow,Light Snow,340,2013-03-12 12:53:00
8:01 AM,21.2,19.4,93,29.95,1.5,NNW,17.3,-,0.00,Snow,Light Snow,340,2013-03-12 13:01:00
8:08 AM,21.2,19.4,93,29.96,2.5,North,16.1,-,0.00,Snow,Light Snow,350,2013-03-12 13:08:00
8:17 AM,21.2,19.4,93,29.97,2.0,North,20.7,-,0.00,Snow,Light Snow,350,2013-03-12 13:17:00
8:22 AM,21.2,17.6,86,29.97,1.2,North,23.0,27.6,0.00,Snow,Light Snow,350,2013-03-12 13:22:00
8:31 AM,19.4,17.6,93,29.98,1.5,North,24.2,-,0.00,Snow,Light Snow,350,2013-03-12 13:31:00
8:36 AM,19.4,15.8,86,29.99,2.0,North,20.7,-,0.00,Snow,Light Snow,350,2013-03-12 13:36:00
8:43 AM,17.6,15.8,93,29.99,2.5,North,20.7,-,0.00,Snow,Light Snow,350,2013-03-12 13:43:00
8:51 AM,17.6,15.8,93,29.99,3.0,North,23.0,-,0.00,,Overcast,350,2013-03-12 13:51:00
8:53 AM,18.0,14.0,84,30.08,3.0,North,21.9,-,0.00,,Overcast,350,2013-03-12 13:53:00
9:05 AM,17.6,15.8,93,30.00,2.0,NNW,19.6,-,0.00,Snow,Light Snow,340,2013-03-12 14:05:00
9:20 AM,17.6,14.0,86,30.02,4.0,NNW,17.3,-,0.00,,Overcast,330,2013-03-12 14:20:00
9:28 AM,17.6,14.0,86,30.03,7.0,NNW,18.4,-,0.00,,Overcast,340,2013-03-12 14:28:00
9:53 AM,18.0,14.0,84,30.13,8.0,NNW,16.1,-,0.00,,Overcast,330,2013-03-12 14:53:00
10:53 AM,19.0,14.0,81,30.16,4.0,NW,17.3,-,N/A,,Haze,320,2013-03-12 15:53:00
11:19 AM,19.4,14.0,80,30.08,2.5,NNW,21.9,-,N/A,,Haze,330,2013-03-12 16:19:00
11:28 AM,19.4,14.0,80,30.09,4.0,NNW,20.7,-,N/A,,Haze,330,2013-03-12 16:28:00
11:53 AM,19.9,14.0,78,30.19,6.0,NNW,24.2,28.8,N/A,,Haze,330,2013-03-12 16:53:00
12:53 PM,19.9,15.1,81,30.20,10.0,NNW,19.6,-,N/A,,Mostly Cloudy,330,2013-03-12 17:53:00
1:07 PM,19.4,15.8,86,30.12,10.0,NNW,21.9,28.8,N/A,,Scattered Clouds,330,2013-03-12 18:07:00
1:46 PM,21.2,15.8,80,30.13,10.0,NW,20.7,-,N/A,,Mostly Cloudy,320,2013-03-12 18:46:00
1:53 PM,21.0,15.1,78,30.21,10.0,NNW,19.6,-,N/A,,Mostly Cloudy,330,2013-03-12 18:53:00
2:01 PM,21.2,15.8,80,30.13,10.0,NW,18.4,27.6,N/A,,Scattered Clouds,320,2013-03-12 19:01:00
2:08 PM,23.0,15.8,74,30.13,10.0,NW,21.9,-,N/A,,Mostly Cloudy,310,2013-03-12 19:08:00
2:41 PM,21.2,15.8,80,30.14,9.0,NNW,20.7,-,N/A,,Overcast,330,2013-03-12 19:41:00
2:53 PM,23.0,16.0,74,30.22,8.0,NW,21.9,29.9,N/A,,Overcast,320,2013-03-12 19:53:00
3:53 PM,23.0,18.0,81,30.22,1.8,NNW,19.6,-,0.00,Snow,Light Snow,330,2013-03-12 20:53:00
4:02 PM,23.0,17.6,80,30.15,2.0,NW,24.2,31.1,0.00,Snow,Light Snow,320,2013-03-12 21:02:00
4:11 PM,23.0,17.6,80,30.15,6.0,NNW,23.0,31.1,0.00,,Haze,330,2013-03-12 21:11:00
4:36 PM,23.0,17.6,80,30.15,1.8,NNW,17.3,28.8,0.00,Snow,Light Snow,330,2013-03-12 21:36:00
4:42 PM,23.0,17.6,80,30.16,3.0,NW,21.9,-,0.00,Snow,Light Snow,320,2013-03-12 21:42:00
4:53 PM,24.1,18.0,77,30.24,6.0,NW,19.6,27.6,0.00,Snow,Light Snow,320,2013-03-12 21:53:00
5:01 PM,21.2,17.6,86,30.16,2.5,NNW,20.7,-,0.00,Snow,Light Snow,330,2013-03-12 22:01:00
5:10 PM,23.0,17.6,80,30.16,4.0,NW,19.6,-,0.00,Snow,Light Snow,320,2013-03-12 22:10:00
5:22 PM,24.8,17.6,74,30.16,8.0,NNW,20.7,-,0.00,,Overcast,330,2013-03-12 22:22:00
5:53 PM,21.9,17.1,82,30.25,5.0,NNW,17.3,27.6,0.00,,Haze,330,2013-03-12 22:53:00
6:08 PM,21.2,17.6,86,30.18,3.0,NW,20.7,-,0.00,Snow,Light Snow,320,2013-03-12 23:08:00
6:19 PM,21.2,15.8,80,30.19,5.0,NNW,19.6,-,0.00,,Haze,340,2013-03-12 23:19:00
6:35 PM,21.2,17.6,86,30.19,2.5,NNW,23.0,-,0.00,Snow,Light Snow,330,2013-03-12 23:35:00
6:43 PM,19.4,15.8,86,30.20,1.8,NNW,20.7,28.8,0.00,Snow,Light Snow,330,2013-03-12 23:43:00
6:46 PM,19.4,15.8,86,30.20,3.0,NNW,19.6,28.8,0.00,,Haze,330,2013-03-12 23:46:00
6:53 PM,19.9,15.1,81,30.28,6.0,NNW,18.4,-,0.00,,Haze,330,2013-03-12 23:53:00
7:53 PM,19.0,15.1,85,30.31,9.0,NNW,21.9,27.6,N/A,,Overcast,330,2013-03-13 00:53:00
8:53 PM,17.1,12.9,84,30.33,10.0,NNW,19.6,-,N/A,,Mostly Cloudy,340,2013-03-13 01:53:00
9:20 PM,17.6,12.2,79,30.24,10.0,NNW,15.0,-,N/A,,Scattered Clouds,330,2013-03-13 02:20:00
9:27 PM,17.6,12.2,79,30.24,10.0,NNW,15.0,-,N/A,,Mostly Cloudy,330,2013-03-13 02:27:00
9:36 PM,15.8,12.2,86,30.24,10.0,NNW,15.0,-,N/A,,Scattered Clouds,330,2013-03-13 02:36:00
9:53 PM,16.0,12.0,84,30.34,10.0,NNW,11.5,-,N/A,,Scattered Clouds,330,2013-03-13 02:53:00
10:03 PM,15.8,12.2,86,30.25,10.0,NNW,12.7,-,N/A,,Mostly Cloudy,340,2013-03-13 03:03:00
10:53 PM,16.0,12.9,88,30.35,10.0,NNW,15.0,-,N/A,,Overcast,340,2013-03-13 03:53:00
11:53 PM,16.0,12.0,84,30.37,10.0,NNW,12.7,-,N/A,,Overcast,340,2013-03-13 04:53:00